Tracking 30743 objects as of 20-Jun-2025
HD Live streaming from Space Station
objects crossing your sky now

THORAD AGENA D DEB

Track THORAD AGENA D DEB now!
10-day predictions


NORAD ID: 4451
Int'l Code: 1969-082EW
Perigee: 694.8 km
Apogee: 744.5 km
Inclination: 70.0 °
Period: 99.0 minutes
Semi major axis: 7090 km
RCS: 0.0152 m2 (small)
Launch date: September 30, 1969
Source: United States (US)
Launch site: AIR FORCE WESTERN TEST RANGE (AFWTR)

Note: This is SATELLITE DEBRIS
Your satellite tracking list
Your tracking list is empty




NASA's NSSDC Master Catalog

Two Line Element Set (TLE):
1 04451U 69082EW  25171.00277641  .00001291  00000-0  31861-3 0  9997
2 04451  70.0318 185.2709 0035066 258.2922 101.4279 14.54026601903024
Source of the keplerian elements: AFSPC